Weather History for San Angelo, TX

Change the Weather History Date:

Friday, February 14, 2014

  Actual Average Record
Temperature  
Mean Temperature 58 °F 50 °F  
Max Temperature 75 °F 63 °F 87 °F (1979)
Min Temperature 40 °F 37 °F 19 °F (1951)
Degree Days  
Heating Degree Days 7 15  
Month to date heating degree days 322 228  
Since 1 July heating degree days 2010 1772  
Cooling Degree Days 0 0  
Month to date cooling degree days 0 0  
Year to date cooling degree days 0 1  
Growing Degree Days 10 (Base 50)    
Moisture  
Dew Point 30 °F    
Average Humidity 42    
Maximum Humidity 65    
Minimum Humidity 18    
Precipitation  
Precipitation 0.00 in 0.05 in 0.25 in (2003)
Month to date precipitation 0.06 0.63  
Year to date precipitation 0.06 1.56  
Snow  
Snow 0.00 in 0.00 in 1.10 in (1951)
Month to date snowfall 0.1 0.2  
Since 1 July snowfall 1.6 2.0  
Snow Depth 0.00 in    
Sea Level Pressure  
Sea Level Pressure 29.94 in    
Wind  
Wind Speed 11 mph (North)    
Max Wind Speed 25 mph    
Max Gust Speed 30 mph    
Visibility 10 miles    
Events      
T = Trace of Precipitation, MM = Missing Value Source: NWS Daily Summary

Daily Weather History Graph

Daily Weather History Graph

Search for Another Location

Airport:

Trip Planner

Search our weather history database for the weather conditions in past years. The results will help you decide how hot, cold, wet, or windy it might be!

Date:

Astronomy

Feb. 14, 2014 Rise Set
Actual Time 7:24 AM CST 6:28 PM CST
Civil Twilight 6:59 AM CST 6:53 PM CST
Nautical Twilight 6:30 AM CST 7:21 PM CST
Astronomical Twilight 6:02 AM CST 7:50 PM CST
Moon 6:30 PM CST (2/14) 6:54 AM CST (2/14)
Length of Visible Light 11h 53m
Length of Day
11h 04m
Full, 100% of the Moon is Illuminated
Feb 14
Full
Feb 14
Full
Feb 22
Last Quarter
Mar 1
New
Mar 8
First Quarter

Hourly Weather History & Observations

Time (CST) Temp. Windchill Dew Point Humidity Pressure Visibility Wind Dir Wind Speed Gust Speed Precip Events Conditions
12:51 AM 46.0 °F 42.5 °F 30.0 °F 54% 29.84 in 10.0 mi SW 6.9 mph - N/A   Clear
1:51 AM 53.1 °F - 33.1 °F 47% 29.82 in 10.0 mi SSW 10.4 mph - N/A   Clear
2:51 AM 55.0 °F - 34.0 °F 45% 29.81 in 10.0 mi SSW 16.1 mph - N/A   Clear
3:51 AM 53.1 °F - 34.0 °F 48% 29.80 in 10.0 mi SW 17.3 mph - N/A   Clear
4:51 AM 52.0 °F - 34.0 °F 50% 29.78 in 10.0 mi WSW 12.7 mph - N/A   Clear
5:51 AM 50.0 °F - 35.1 °F 57% 29.79 in 10.0 mi SW 10.4 mph - N/A   Clear
6:51 AM 46.9 °F - 35.1 °F 63% 29.84 in 10.0 mi SW 10.4 mph - N/A   Clear
7:51 AM 48.9 °F - 35.1 °F 59% 29.86 in 10.0 mi Calm Calm - N/A   Clear
8:51 AM 54.0 °F - 35.1 °F 49% 29.90 in 10.0 mi West 3.5 mph - N/A   Clear
9:51 AM 62.1 °F - 32.0 °F 32% 29.92 in 10.0 mi West 11.5 mph - N/A   Clear
10:51 AM 72.0 °F - 30.0 °F 21% 29.94 in 10.0 mi North 18.4 mph - N/A   Clear
11:51 AM 73.9 °F - 28.9 °F 19% 29.96 in 10.0 mi North 16.1 mph - N/A   Clear
12:51 PM 75.0 °F - 28.0 °F 18% 29.97 in 10.0 mi NNE 12.7 mph 20.7 mph N/A   Clear
1:51 PM 73.0 °F - 28.9 °F 20% 29.97 in 10.0 mi NNE 16.1 mph 27.6 mph N/A   Clear
2:51 PM 73.0 °F - 28.9 °F 20% 29.95 in 10.0 mi NNE 19.6 mph 28.8 mph N/A   Clear
3:51 PM 71.1 °F - 28.0 °F 20% 29.97 in 10.0 mi NE 18.4 mph - N/A   Clear
4:51 PM 69.1 °F - 27.0 °F 21% 29.99 in 10.0 mi NE 17.3 mph - N/A   Clear
5:51 PM 66.0 °F - 27.0 °F 23% 30.01 in 10.0 mi NE 17.3 mph - N/A   Clear
6:51 PM 60.1 °F - 26.1 °F 27% 30.06 in 10.0 mi NE 9.2 mph - N/A   Clear
7:51 PM 55.0 °F - 26.1 °F 33% 30.07 in 10.0 mi NE 8.1 mph - N/A   Clear
8:51 PM 48.9 °F - 25.0 °F 39% 30.08 in 10.0 mi ENE 8.1 mph - N/A   Clear
9:51 PM 46.9 °F - 25.0 °F 42% 30.08 in 10.0 mi East 4.6 mph - N/A   Clear
10:51 PM 45.0 °F - 24.1 °F 44% 30.08 in 10.0 mi Calm Calm - N/A   Clear
11:51 PM 46.0 °F 44.8 °F 24.1 °F 42% 30.08 in 10.0 mi SSW 3.5 mph - N/A   Clear